AAL72 KLAX-VHHX

Flight info

Callsign AAL72
Flight time 3h 14m
Altitude 32000
Route SUMMR2 MCKEY DCT LIBBO DCT BRINY DCT ALCOA DCT BUTEN DCT BOSKE DCT 37N140W/N0491F340 34N150W 32N160W 30N170W/N0486F360 26N180E 23N170E/N0487F380 21N160E 20N150E 21N140E/N0484F400 DCT TUNTO DCT GUMBO J5 HCN G581 ELATO
Aircraft B772/H-SDE2E3FGHIJ5LORVWXY/LB1D1

Departure

Time 2026-04-20 00:58
Airport Los Angeles International Airport (KLAX)

Arrival

Time 2026-04-20 04:12
Airport Hong Kong International Airport Kai Tak (VHHX)
Time Latitude Longitude Altitude Speed Heading
2026-04-20 00:32 33.94261 -118.41120 126 ft 0 kts 83°
2026-04-20 00:47 33.94261 -118.41122 130 ft 2 kts 83°
2026-04-20 00:48 33.94259 -118.41144 124 ft 3 kts 83°
2026-04-20 00:48 33.94257 -118.41167 125 ft 3 kts 96°
2026-04-20 00:48 33.94257 -118.41174 125 ft 0 kts 111°
2026-04-20 00:49 33.94260 -118.41190 125 ft 3 kts 81°
2026-04-20 00:49 33.94253 -118.41212 124 ft 3 kts 36°
2026-04-20 00:49 33.94235 -118.41221 124 ft 2 kts 352°
2026-04-20 00:49 33.94233 -118.41220 124 ft 0 kts 352°
2026-04-20 00:51 33.94251 -118.41224 124 ft 6 kts 352°
2026-04-20 00:52 33.94307 -118.41230 126 ft 9 kts 356°
2026-04-20 00:52 33.94371 -118.41236 127 ft 10 kts 354°
2026-04-20 00:52 33.94446 -118.41247 127 ft 12 kts 352°
2026-04-20 00:52 33.94540 -118.41263 127 ft 15 kts 352°
2026-04-20 00:53 33.94618 -118.41274 127 ft 0 kts 353°
2026-04-20 00:53 33.94626 -118.41275 127 ft 4 kts 353°
2026-04-20 00:53 33.94669 -118.41281 127 ft 7 kts 353°
2026-04-20 00:53 33.94718 -118.41288 125 ft 8 kts 353°
2026-04-20 00:54 33.94770 -118.41278 127 ft 8 kts 34°
2026-04-20 00:54 33.94798 -118.41219 126 ft 8 kts 73°
2026-04-20 00:54 33.94809 -118.41139 128 ft 12 kts 83°
2026-04-20 00:54 33.94821 -118.41019 129 ft 17 kts 83°
2026-04-20 00:55 33.94837 -118.40875 129 ft 17 kts 82°
2026-04-20 00:55 33.94852 -118.40731 128 ft 17 kts 83°
2026-04-20 00:55 33.94866 -118.40589 129 ft 17 kts 83°
2026-04-20 00:55 33.94881 -118.40445 127 ft 17 kts 83°
2026-04-20 00:56 33.94895 -118.40301 128 ft 17 kts 83°
2026-04-20 00:56 33.94910 -118.40157 130 ft 17 kts 82°
2026-04-20 00:56 33.94923 -118.40028 130 ft 12 kts 82°
2026-04-20 00:56 33.94943 -118.39940 128 ft 10 kts 63°
2026-04-20 00:57 33.94952 -118.39930 125 ft 0 kts 31°
2026-04-20 00:57 33.94985 -118.39919 126 ft 13 kts
2026-04-20 00:57 33.95035 -118.40007 126 ft 15 kts 267°
2026-04-20 00:57 33.95013 -118.40213 127 ft 50 kts 262°
2026-04-20 00:58 33.94937 -118.40930 130 ft 120 kts 263°
2026-04-20 00:58 33.94826 -118.42187 160 ft 176 kts 263°
2026-04-20 00:58 33.94688 -118.43759 482 ft 202 kts 261°
2026-04-20 00:58 33.94444 -118.45526 1073 ft 224 kts 258°
2026-04-20 00:59 33.94141 -118.47391 1713 ft 228 kts 257°
2026-04-20 00:59 33.93818 -118.49272 2009 ft 231 kts 258°
2026-04-20 00:59 33.93613 -118.51305 2411 ft 258 kts 262°
2026-04-20 00:59 33.93490 -118.53495 3468 ft 257 kts 268°
2026-04-20 01:00 33.93527 -118.55564 4921 ft 239 kts 269°
2026-04-20 01:00 33.93547 -118.57528 5887 ft 239 kts 266°
2026-04-20 01:00 33.93493 -118.59610 6288 ft 260 kts 263°
2026-04-20 01:00 33.93338 -118.61877 6640 ft 278 kts 261°
2026-04-20 01:01 33.93172 -118.64242 7310 ft 286 kts 263°
2026-04-20 01:01 33.93012 -118.66611 8297 ft 280 kts 263°
2026-04-20 01:01 33.92845 -118.68873 9424 ft 268 kts 261°
2026-04-20 01:01 33.92639 -118.71073 10353 ft 261 kts 260°
2026-04-20 01:02 33.92436 -118.73300 10729 ft 276 kts 261°
2026-04-20 01:02 33.92276 -118.75652 11197 ft 285 kts 262°
2026-04-20 01:02 33.92094 -118.78107 11520 ft 303 kts 261°
2026-04-20 01:02 33.91897 -118.80702 11638 ft 319 kts 263°
2026-04-20 01:03 33.91867 -118.83448 11775 ft 337 kts 268°
2026-04-20 01:03 33.91949 -118.86316 11907 ft 354 kts 269°
2026-04-20 01:03 33.92042 -118.89353 12041 ft 370 kts 269°
2026-04-20 01:03 33.92111 -118.92506 12346 ft 381 kts 268°
2026-04-20 01:04 33.92161 -118.95726 12820 ft 388 kts 268°
2026-04-20 01:04 33.92268 -118.98950 13402 ft 391 kts 274°
2026-04-20 01:04 33.92871 -119.02188 13985 ft 399 kts 287°
2026-04-20 01:04 33.93993 -119.05271 14597 ft 404 kts 297°
2026-04-20 01:05 33.95514 -119.08139 15231 ft 406 kts 301°
2026-04-20 01:05 33.97043 -119.10977 15809 ft 409 kts 300°
2026-04-20 01:05 33.98564 -119.13895 16377 ft 412 kts 299°
2026-04-20 01:05 34.00180 -119.16769 16974 ft 417 kts 306°
2026-04-20 01:06 34.02144 -119.19379 17567 ft 422 kts 314°
2026-04-20 01:06 34.04395 -119.21696 18153 ft 428 kts 321°
2026-04-20 01:06 34.06836 -119.23781 18664 ft 431 kts 323°
2026-04-20 01:06 34.09282 -119.25839 19218 ft 432 kts 323°
2026-04-20 01:07 34.11750 -119.27921 19866 ft 432 kts 322°
2026-04-20 01:07 34.14207 -119.30008 20437 ft 433 kts 322°
2026-04-20 01:07 34.16683 -119.32126 20954 ft 436 kts 322°
2026-04-20 01:07 34.19158 -119.34254 21461 ft 438 kts 322°
2026-04-20 01:08 34.21656 -119.36408 21974 ft 441 kts 322°
2026-04-20 01:08 34.24134 -119.38548 22433 ft 444 kts 322°
2026-04-20 01:08 34.26664 -119.40735 22905 ft 446 kts 322°
2026-04-20 01:08 34.29178 -119.42910 23383 ft 448 kts 322°
2026-04-20 01:09 34.31723 -119.45112 23807 ft 450 kts 322°
2026-04-20 01:09 34.34279 -119.47325 24202 ft 451 kts 322°
2026-04-20 01:09 34.36842 -119.49545 24592 ft 452 kts 322°
2026-04-20 01:09 34.39394 -119.51798 24970 ft 453 kts 319°
2026-04-20 01:10 34.41757 -119.54264 25318 ft 453 kts 314°
2026-04-20 01:10 34.45954 -119.59988 26016 ft 454 kts 308°
2026-04-20 01:10 34.47970 -119.62892 26347 ft 455 kts 308°
2026-04-20 01:11 34.50022 -119.65839 26646 ft 457 kts 308°
2026-04-20 01:11 34.52090 -119.68799 26963 ft 459 kts 308°
2026-04-20 01:11 34.54164 -119.71761 27291 ft 460 kts 308°
2026-04-20 01:11 34.56218 -119.74689 27583 ft 461 kts 308°
2026-04-20 01:12 34.58307 -119.77665 27873 ft 462 kts 308°
2026-04-20 01:12 34.60408 -119.80658 28140 ft 464 kts 308°
2026-04-20 01:12 34.62481 -119.83614 28411 ft 465 kts 308°
2026-04-20 01:12 34.64586 -119.86618 28649 ft 466 kts 308°
2026-04-20 01:13 34.66693 -119.89628 28876 ft 467 kts 308°
2026-04-20 01:13 34.68800 -119.92642 29114 ft 468 kts 308°
2026-04-20 01:13 34.70922 -119.95678 29345 ft 469 kts 308°
2026-04-20 01:13 34.73040 -119.98714 29547 ft 470 kts 308°
2026-04-20 01:14 34.75137 -120.01720 29739 ft 471 kts 308°
2026-04-20 01:14 34.77263 -120.04771 29991 ft 471 kts 308°
2026-04-20 01:14 34.79380 -120.07811 30244 ft 469 kts 308°
2026-04-20 01:14 34.81486 -120.10838 30502 ft 467 kts 308°
2026-04-20 01:15 34.83591 -120.13866 30707 ft 467 kts 308°
2026-04-20 01:15 34.85661 -120.16848 30908 ft 466 kts 308°
2026-04-20 01:15 34.87757 -120.19868 31120 ft 465 kts 308°
2026-04-20 01:15 34.89847 -120.22884 31332 ft 464 kts 308°
2026-04-20 01:16 34.91908 -120.25861 31535 ft 463 kts 308°
2026-04-20 01:16 34.93981 -120.28856 31730 ft 462 kts 308°
2026-04-20 01:16 34.96059 -120.31861 31871 ft 463 kts 307°
2026-04-20 01:16 34.98138 -120.34872 31936 ft 464 kts 307°
2026-04-20 01:17 35.02295 -120.40897 31971 ft 462 kts 307°
2026-04-20 01:17 35.06402 -120.46859 31977 ft 460 kts 307°
2026-04-20 01:18 35.10532 -120.52867 31968 ft 460 kts 307°
2026-04-20 01:18 35.14626 -120.58833 31965 ft 460 kts 307°
2026-04-20 01:19 35.18753 -120.64858 31967 ft 461 kts 307°
2026-04-20 01:19 35.22851 -120.70849 31964 ft 462 kts 307°
2026-04-20 01:20 35.26978 -120.76895 31971 ft 463 kts 307°
2026-04-20 01:20 35.31114 -120.82964 31964 ft 464 kts 307°
2026-04-20 01:21 35.35233 -120.89017 31974 ft 464 kts 307°
2026-04-20 01:21 35.38679 -120.94092 31981 ft 464 kts 307°
2026-04-20 01:22 35.42815 -121.00191 31982 ft 464 kts 306°
2026-04-20 01:22 35.51780 -121.13349 31988 ft 464 kts 307°
2026-04-20 01:23 35.80319 -121.54537 32000 ft 465 kts 306°
2026-04-20 01:23 36.12024 -121.91560 32049 ft 492 kts 331°
2026-04-20 01:24 36.36004 -122.05732 31914 ft 475 kts 327°
2026-04-20 01:24 36.59706 -122.20849 32007 ft 482 kts 327°
2026-04-20 01:24 37.07996 -122.51670 31991 ft 496 kts 327°
2026-04-20 01:25 37.31832 -122.68511 31618 ft 465 kts 306°
2026-04-20 01:25 37.36288 -122.96902 32100 ft 427 kts 270°
2026-04-20 01:25 37.42251 -123.31914 32187 ft 463 kts 278°
2026-04-20 01:25 37.47050 -123.59413 32299 ft 463 kts 277°
2026-04-20 01:26 37.47706 -123.63354 32098 ft 453 kts 276°
2026-04-20 01:26 37.48348 -123.67199 32027 ft 444 kts 276°
2026-04-20 01:26 37.53010 -123.94747 31904 ft 428 kts 276°
2026-04-20 01:26 37.58036 -124.24747 32078 ft 445 kts 276°
2026-04-20 01:27 37.63169 -124.55796 32030 ft 457 kts 275°
2026-04-20 01:27 37.68207 -124.86808 31892 ft 452 kts 275°
2026-04-20 01:27 37.73085 -125.17466 31793 ft 436 kts 274°
2026-04-20 01:27 37.77801 -125.47677 31913 ft 438 kts 274°
2026-04-20 01:28 37.83772 -126.08535 31901 ft 432 kts 263°
2026-04-20 01:28 37.84600 -126.69774 31880 ft 439 kts 263°
2026-04-20 01:29 37.85095 -127.31001 31840 ft 424 kts 262°
2026-04-20 01:29 37.85213 -127.90681 31937 ft 433 kts 262°
2026-04-20 01:30 37.85041 -128.52875 31867 ft 445 kts 262°
2026-04-20 01:30 37.84530 -129.14299 31837 ft 437 kts 263°
2026-04-20 01:31 37.84151 -129.45656 31934 ft 449 kts 263°
2026-04-20 01:31 37.83677 -129.77749 31934 ft 460 kts 264°
2026-04-20 01:31 37.81512 -130.41941 31771 ft 447 kts 264°
2026-04-20 01:32 37.78582 -131.04998 31916 ft 460 kts 264°
2026-04-20 01:32 37.75206 -131.69845 31777 ft 454 kts 265°
2026-04-20 01:33 37.71552 -132.33299 31894 ft 459 kts 265°
2026-04-20 01:33 37.67449 -132.98316 31807 ft 463 kts 265°
2026-04-20 01:34 37.63103 -133.61687 31789 ft 451 kts 265°
2026-04-20 01:34 37.58367 -134.25728 31836 ft 462 kts 266°
2026-04-20 01:35 37.55869 -134.57674 31757 ft 451 kts 266°
2026-04-20 01:35 37.53362 -134.88669 31736 ft 440 kts 267°
2026-04-20 01:35 37.50775 -135.19593 31858 ft 446 kts 268°
2026-04-20 01:35 37.48115 -135.50597 31865 ft 453 kts 267°
2026-04-20 01:36 37.42471 -136.12785 31714 ft 434 kts 269°
2026-04-20 01:36 37.39628 -136.43161 32154 ft 437 kts 269°
2026-04-20 01:36 37.36752 -136.72898 33327 ft 433 kts 270°
2026-04-20 01:37 37.33810 -137.02604 33899 ft 431 kts 270°
2026-04-20 01:37 37.30770 -137.32252 33808 ft 422 kts 271°
2026-04-20 01:37 37.27749 -137.60946 33696 ft 403 kts 272°
2026-04-20 01:37 37.24824 -137.88606 33786 ft 399 kts 272°
2026-04-20 01:38 37.18580 -138.45084 33926 ft 417 kts 271°
2026-04-20 01:38 37.11894 -139.02808 33836 ft 417 kts 270°
2026-04-20 01:39 37.05078 -139.59454 33895 ft 412 kts 270°
2026-04-20 01:39 36.95858 -140.17253 33982 ft 440 kts 260°
2026-04-20 01:40 36.88410 -140.46131 33841 ft 430 kts 261°
2026-04-20 01:40 36.81302 -140.74175 33857 ft 425 kts 261°
2026-04-20 01:40 36.74022 -141.02516 34020 ft 432 kts 260°
2026-04-20 01:40 36.66587 -141.31108 34090 ft 440 kts 259°
2026-04-20 01:41 36.51135 -141.89531 33987 ft 443 kts 258°
2026-04-20 01:41 36.35653 -142.46818 34095 ft 441 kts 257°
2026-04-20 01:42 36.19406 -143.05606 34123 ft 456 kts 256°
2026-04-20 01:42 36.02890 -143.64081 34043 ft 445 kts 255°
2026-04-20 01:43 35.86103 -144.22307 34229 ft 457 kts 254°
2026-04-20 01:43 35.68548 -144.81909 34133 ft 463 kts 253°
2026-04-20 01:44 35.51064 -145.40028 34196 ft 452 kts 252°
2026-04-20 01:44 35.32965 -145.99001 34278 ft 468 kts 252°
2026-04-20 01:45 35.14438 -146.58141 34149 ft 460 kts 251°
2026-04-20 01:45 34.95890 -147.16245 34293 ft 463 kts 251°
2026-04-20 01:46 34.76746 -147.75021 34280 ft 470 kts 250°
2026-04-20 01:46 34.57568 -148.32763 34229 ft 454 kts 250°
2026-04-20 01:47 34.47948 -148.61337 34349 ft 460 kts 250°
2026-04-20 01:47 34.38065 -148.90418 34350 ft 467 kts 250°
2026-04-20 01:47 34.18261 -149.47909 34221 ft 457 kts 249°
2026-04-20 01:48 33.99021 -150.04124 34312 ft 452 kts 258°
2026-04-20 01:48 33.89833 -150.64022 34342 ft 460 kts 261°
2026-04-20 01:49 33.80066 -151.23625 34231 ft 443 kts 259°
2026-04-20 01:49 33.75143 -151.52943 34337 ft 447 kts 259°
2026-04-20 01:49 33.70121 -151.82356 34388 ft 455 kts 259°
2026-04-20 01:50 33.59696 -152.42184 34280 ft 453 kts 257°
2026-04-20 01:50 33.54532 -152.71074 34223 ft 442 kts 257°
2026-04-20 01:50 33.49327 -152.99919 34354 ft 445 kts 257°
2026-04-20 01:51 33.38531 -153.58425 34365 ft 454 kts 256°
2026-04-20 01:51 33.32972 -153.87883 34259 ft 447 kts 255°
2026-04-20 01:51 33.27487 -154.16588 34246 ft 439 kts 255°
2026-04-20 01:52 33.16288 -154.73968 34363 ft 452 kts 254°
2026-04-20 01:52 33.04530 -155.32794 34282 ft 453 kts 253°
2026-04-20 01:53 32.92669 -155.90525 34277 ft 448 kts 252°
2026-04-20 01:53 32.80444 -156.48589 34327 ft 460 kts 252°
2026-04-20 01:54 32.68046 -157.06203 34188 ft 432 kts 251°
2026-04-20 01:54 32.55759 -157.61776 34324 ft 442 kts 251°
2026-04-20 01:55 32.42917 -158.18641 34196 ft 444 kts 251°
2026-04-20 01:55 32.30052 -158.74343 34216 ft 438 kts 250°
2026-04-20 01:56 32.16792 -159.30525 34253 ft 452 kts 250°
2026-04-20 01:56 32.03026 -159.87608 34117 ft 443 kts 250°
2026-04-20 01:57 31.93056 -160.43783 34222 ft 444 kts 255°
2026-04-20 01:57 31.83541 -161.01779 34157 ft 453 kts 254°
2026-04-20 01:58 31.73888 -161.59075 34114 ft 443 kts 253°
2026-04-20 01:58 31.63911 -162.16600 34170 ft 459 kts 254°
2026-04-20 01:59 31.58713 -162.45965 34067 ft 457 kts 254°
2026-04-20 01:59 31.53522 -162.74803 34025 ft 447 kts 255°
2026-04-20 01:59 31.42987 -163.32420 34189 ft 465 kts 256°
2026-04-20 02:00 31.37408 -163.62287 35182 ft 468 kts 256°
2026-04-20 02:00 31.31787 -163.92010 36171 ft 468 kts 256°
2026-04-20 02:00 31.20235 -164.51826 36020 ft 465 kts 256°
2026-04-20 02:01 31.14509 -164.80820 35931 ft 450 kts 256°
2026-04-20 02:01 31.08919 -165.08909 36068 ft 450 kts 256°
2026-04-20 02:01 30.97207 -165.66540 36123 ft 464 kts 256°
2026-04-20 02:02 30.85038 -166.24979 35989 ft 457 kts 256°
2026-04-20 02:02 30.72956 -166.81797 36072 ft 454 kts 257°
2026-04-20 02:03 30.60415 -167.39222 36073 ft 464 kts 258°
2026-04-20 02:03 30.47620 -167.96701 35935 ft 449 kts 260°
2026-04-20 02:04 30.34829 -168.52870 36092 ft 456 kts 260°
2026-04-20 02:04 30.21499 -169.10000 36001 ft 463 kts 262°
2026-04-20 02:05 30.08139 -169.66292 35939 ft 449 kts 264°
2026-04-20 02:05 29.92201 -170.22571 36008 ft 480 kts 259°
2026-04-20 02:06 29.82142 -170.50672 35953 ft 466 kts 261°
2026-04-20 02:06 29.72416 -170.78125 35958 ft 461 kts 260°
2026-04-20 02:06 29.62722 -171.05192 36075 ft 466 kts 260°
2026-04-20 02:06 29.52704 -171.32982 36087 ft 473 kts 259°
2026-04-20 02:07 29.32481 -171.88252 35949 ft 458 kts 258°
2026-04-20 02:07 29.12654 -172.41777 36113 ft 466 kts 257°
2026-04-20 02:08 28.91753 -172.97276 36046 ft 478 kts 256°
2026-04-20 02:08 28.70755 -173.52219 35969 ft 464 kts 256°
2026-04-20 02:09 28.60327 -173.79243 36084 ft 466 kts 256°
2026-04-20 02:09 28.53333 -173.97257 36109 ft 470 kts 256°
2026-04-20 02:09 28.28404 -174.60733 36000 ft 470 kts 255°
2026-04-20 02:10 28.17779 -174.87478 35950 ft 457 kts 255°
2026-04-20 02:10 28.10703 -175.05205 36010 ft 458 kts 255°
2026-04-20 02:10 27.89407 -175.58070 36091 ft 471 kts 254°
2026-04-20 02:11 27.67481 -176.11720 35950 ft 461 kts 253°
2026-04-20 02:11 27.46034 -176.63546 36083 ft 462 kts 253°
2026-04-20 02:12 27.23739 -177.16685 36081 ft 475 kts 252°
2026-04-20 02:12 27.02717 -177.66171 35925 ft 464 kts 252°
2026-04-20 02:13 26.80837 -178.17782 36668 ft 469 kts 245°
2026-04-20 02:13 26.70118 -178.41571 35575 ft 397 kts 253°
2026-04-20 02:13 26.60304 -178.64333 36222 ft 421 kts 252°
2026-04-20 02:14 26.49722 -178.88481 36226 ft 457 kts 251°
2026-04-20 02:14 26.38110 -179.14757 36188 ft 483 kts 251°
2026-04-20 02:14 26.26133 -179.41715 36008 ft 483 kts 250°
2026-04-20 02:14 26.14276 -179.68233 35884 ft 465 kts 250°
2026-04-20 02:15 25.94736 179.80336 36046 ft 448 kts 262°
2026-04-20 02:15 25.87756 179.53090 36108 ft 465 kts 259°
2026-04-20 02:15 25.80359 179.25286 36067 ft 469 kts 259°
2026-04-20 02:16 25.73031 178.97820 35965 ft 463 kts 259°
2026-04-20 02:16 25.65741 178.70739 35922 ft 450 kts 259°
2026-04-20 02:16 25.51136 178.17089 36090 ft 467 kts 259°
2026-04-20 02:17 25.35778 177.61587 35977 ft 469 kts 258°
2026-04-20 02:17 25.28147 177.34383 35912 ft 458 kts 258°
2026-04-20 02:17 25.20508 177.07283 36000 ft 464 kts 258°
2026-04-20 02:18 25.04764 176.52158 36042 ft 476 kts 258°
2026-04-20 02:18 24.96747 176.24406 35927 ft 470 kts 257°
2026-04-20 02:18 24.88835 175.97237 35919 ft 463 kts 257°
2026-04-20 02:19 24.72722 175.42489 36059 ft 476 kts 257°
2026-04-20 02:19 24.56248 174.87360 35898 ft 470 kts 256°
2026-04-20 02:20 24.39811 174.33146 36045 ft 472 kts 256°
2026-04-20 02:20 24.22911 173.78178 35952 ft 477 kts 255°
2026-04-20 02:21 24.06095 173.24310 35964 ft 465 kts 255°
2026-04-20 02:21 23.97560 172.97212 36056 ft 473 kts 255°
2026-04-20 02:22 23.80152 172.42579 35987 ft 481 kts 254°
2026-04-20 02:22 23.62569 171.88115 35880 ft 464 kts 253°
2026-04-20 02:22 23.53997 171.61825 36019 ft 469 kts 253°
2026-04-20 02:23 23.45058 171.34600 36024 ft 477 kts 253°
2026-04-20 02:23 23.26863 170.79721 36929 ft 482 kts 252°
2026-04-20 02:23 23.17728 170.52454 38022 ft 479 kts 252°
2026-04-20 02:24 23.08609 170.25386 38034 ft 484 kts 252°
2026-04-20 02:24 22.99451 169.97941 37871 ft 474 kts 257°
2026-04-20 02:24 22.95037 169.70275 37862 ft 458 kts 262°
2026-04-20 02:24 22.90396 169.43061 37964 ft 458 kts 261°
2026-04-20 02:25 22.85695 169.15617 38031 ft 466 kts 261°
2026-04-20 02:25 22.75996 168.59933 37953 ft 473 kts 261°
2026-04-20 02:26 22.66253 168.05177 37869 ft 457 kts 261°
2026-04-20 02:26 22.61335 167.77944 37976 ft 462 kts 261°
2026-04-20 02:26 22.56311 167.50395 38031 ft 470 kts 260°
2026-04-20 02:27 22.45950 166.94481 37904 ft 471 kts 260°
2026-04-20 02:27 22.35690 166.40160 37894 ft 461 kts 259°
2026-04-20 02:27 22.30465 166.12903 38004 ft 468 kts 259°
2026-04-20 02:28 22.25088 165.85104 38005 ft 476 kts 259°
2026-04-20 02:28 22.14155 165.29398 37870 ft 470 kts 259°
2026-04-20 02:29 22.03286 164.75020 37945 ft 465 kts 259°
2026-04-20 02:29 21.92092 164.20014 37950 ft 477 kts 259°
2026-04-20 02:30 21.80519 163.64184 37861 ft 472 kts 258°
2026-04-20 02:30 21.69115 163.10099 37947 ft 467 kts 258°
2026-04-20 02:31 21.57254 162.54791 37965 ft 481 kts 258°
2026-04-20 02:31 21.45083 161.98987 37803 ft 468 kts 258°
2026-04-20 02:32 21.33111 161.45015 37982 ft 474 kts 258°
2026-04-20 02:32 21.20536 160.89230 37911 ft 481 kts 257°
2026-04-20 02:33 21.07989 160.34451 37877 ft 469 kts 257°
2026-04-20 02:33 20.98328 159.78929 37968 ft 479 kts 269°
2026-04-20 02:34 20.94297 159.21850 37892 ft 481 kts 267°
2026-04-20 02:34 20.89990 158.65732 37885 ft 469 kts 266°
2026-04-20 02:35 20.85480 158.09445 37944 ft 477 kts 266°
2026-04-20 02:35 20.80749 157.52794 37931 ft 480 kts 266°
2026-04-20 02:36 20.75806 156.95891 37923 ft 481 kts 265°
2026-04-20 02:36 20.70691 156.39138 37911 ft 482 kts 265°
2026-04-20 02:37 20.65366 155.82199 37918 ft 482 kts 265°
2026-04-20 02:37 20.59851 155.25285 37927 ft 480 kts 265°
2026-04-20 02:38 20.54184 154.68746 37906 ft 480 kts 265°
2026-04-20 02:38 20.48314 154.12047 37926 ft 480 kts 265°
2026-04-20 02:39 20.42280 153.55597 37927 ft 481 kts 264°
2026-04-20 02:39 20.36055 152.99104 37927 ft 482 kts 264°
2026-04-20 02:40 20.29619 152.42307 37929 ft 482 kts 263°
2026-04-20 02:40 20.22984 151.85528 37927 ft 482 kts 263°
2026-04-20 02:41 20.16212 151.29174 37941 ft 482 kts 263°
2026-04-20 02:41 20.09213 150.72471 37947 ft 483 kts 263°
2026-04-20 02:42 20.02072 150.16063 37957 ft 483 kts 263°
2026-04-20 02:42 20.01045 149.87765 37943 ft 479 kts 279°
2026-04-20 02:42 20.05261 149.59642 37953 ft 480 kts 277°
2026-04-20 02:43 20.12259 149.03120 37966 ft 480 kts 277°
2026-04-20 02:43 20.19121 148.46824 37936 ft 478 kts 277°
2026-04-20 02:44 20.25736 147.91101 37960 ft 476 kts 276°
2026-04-20 02:44 20.32205 147.35052 37960 ft 475 kts 276°
2026-04-20 02:45 20.38439 146.79441 37961 ft 473 kts 276°
2026-04-20 02:45 20.44506 146.23716 37964 ft 472 kts 276°
2026-04-20 02:46 20.50405 145.67986 37965 ft 471 kts 276°
2026-04-20 02:46 20.56109 145.12268 38203 ft 477 kts 276°
2026-04-20 02:46 20.58896 144.84418 39598 ft 473 kts 276°
2026-04-20 02:47 20.61655 144.56316 40089 ft 480 kts 275°
2026-04-20 02:47 20.67073 143.99761 39877 ft 466 kts 275°
2026-04-20 02:47 20.69577 143.72945 39866 ft 452 kts 275°
2026-04-20 02:48 20.72048 143.46004 39993 ft 457 kts 275°
2026-04-20 02:48 20.76966 142.90969 40023 ft 471 kts 275°
2026-04-20 02:49 20.81738 142.35577 39896 ft 459 kts 275°
2026-04-20 02:49 20.86168 141.82121 40001 ft 457 kts 274°
2026-04-20 02:50 20.90537 141.27301 40023 ft 468 kts 274°
2026-04-20 02:50 20.94743 140.72368 39891 ft 452 kts 274°
2026-04-20 02:51 20.98658 140.18876 40019 ft 454 kts 274°
2026-04-20 02:51 21.07628 139.65302 40021 ft 463 kts 282°
2026-04-20 02:52 21.18979 139.12303 39878 ft 445 kts 281°
2026-04-20 02:52 21.24487 138.86415 39982 ft 445 kts 281°
2026-04-20 02:52 21.30000 138.60283 40051 ft 452 kts 280°
2026-04-20 02:53 21.41036 138.07343 39995 ft 457 kts 279°
2026-04-20 02:53 21.51771 137.54984 39916 ft 438 kts 279°
2026-04-20 02:54 21.62112 137.03645 40073 ft 449 kts 279°
2026-04-20 02:54 21.72655 136.50473 39998 ft 454 kts 278°
2026-04-20 02:55 21.82806 135.98351 39908 ft 437 kts 278°
2026-04-20 02:55 21.87750 135.72619 40029 ft 440 kts 278°
2026-04-20 02:55 21.92716 135.46534 40073 ft 448 kts 277°
2026-04-20 02:56 22.02718 134.93328 39998 ft 451 kts 277°
2026-04-20 02:56 22.12267 134.41557 39944 ft 434 kts 277°
2026-04-20 02:56 22.16929 134.15908 40049 ft 438 kts 277°
2026-04-20 02:57 22.21646 133.89741 40081 ft 446 kts 277°
2026-04-20 02:57 22.30995 133.37129 40001 ft 445 kts 277°
2026-04-20 02:57 22.35537 133.11198 39936 ft 432 kts 276°
2026-04-20 02:58 22.38474 132.94266 39941 ft 427 kts 276°
2026-04-20 02:58 22.48684 132.34599 40085 ft 440 kts 276°
2026-04-20 02:59 22.56002 131.90987 40000 ft 439 kts 276°
2026-04-20 02:59 22.60264 131.65246 39943 ft 427 kts 276°
2026-04-20 02:59 22.64388 131.40022 39979 ft 423 kts 276°
2026-04-20 03:00 22.72578 130.89230 40078 ft 434 kts 275°
2026-04-20 03:00 22.80683 130.37923 40002 ft 430 kts 275°
2026-04-20 03:00 22.84612 130.12642 39968 ft 419 kts 275°
2026-04-20 03:01 22.88432 129.87750 40021 ft 418 kts 275°
2026-04-20 03:01 22.96037 129.37471 40051 ft 428 kts 275°
2026-04-20 03:02 22.99928 128.86381 40008 ft 421 kts 265°
2026-04-20 03:02 22.98583 128.35348 40025 ft 423 kts 265°
2026-04-20 03:03 22.97115 127.84715 40025 ft 421 kts 266°
2026-04-20 03:03 22.95507 127.34088 39979 ft 420 kts 265°
2026-04-20 03:04 22.93714 126.83436 40038 ft 420 kts 266°
2026-04-20 03:04 22.91768 126.32709 40030 ft 421 kts 265°
2026-04-20 03:05 22.89659 125.81986 40038 ft 422 kts 265°
2026-04-20 03:05 22.87370 125.30869 40034 ft 424 kts 265°
2026-04-20 03:06 22.84913 124.79655 40009 ft 426 kts 265°
2026-04-20 03:06 22.82295 124.28572 40043 ft 427 kts 265°
2026-04-20 03:07 22.79496 123.77107 40006 ft 427 kts 264°
2026-04-20 03:07 22.76341 123.25633 39996 ft 426 kts 259°
2026-04-20 03:08 22.60318 122.77637 40040 ft 426 kts 250°
2026-04-20 03:08 22.43688 122.29254 40043 ft 429 kts 250°
2026-04-20 03:09 22.26931 121.81031 40017 ft 431 kts 250°
2026-04-20 03:09 22.09864 121.32455 40021 ft 432 kts 249°
2026-04-20 03:10 21.93238 120.84064 40002 ft 434 kts 260°
2026-04-20 03:10 21.96274 120.58212 40091 ft 437 kts 275°
2026-04-20 03:10 21.99564 120.32141 40035 ft 438 kts 275°
2026-04-20 03:11 22.03700 119.99662 40012 ft 437 kts 275°
2026-04-20 03:11 22.04523 119.93207 40020 ft 436 kts 275°
2026-04-20 03:12 22.05345 119.86745 40018 ft 436 kts 275°
2026-04-20 03:12 22.06164 119.80279 40022 ft 435 kts 274°
2026-04-20 03:13 22.06981 119.73807 40017 ft 434 kts 274°
2026-04-20 03:13 22.07791 119.67376 40018 ft 434 kts 274°
2026-04-20 03:14 22.08592 119.60923 40013 ft 434 kts 274°
2026-04-20 03:14 22.09382 119.54467 40015 ft 434 kts 274°
2026-04-20 03:15 22.10170 119.48014 40021 ft 435 kts 274°
2026-04-20 03:15 22.10960 119.41533 40018 ft 436 kts 274°
2026-04-20 03:16 22.11747 119.35063 40019 ft 436 kts 274°
2026-04-20 03:16 22.12529 119.28608 40018 ft 437 kts 274°
2026-04-20 03:17 22.13315 119.22096 40018 ft 437 kts 274°
2026-04-20 03:17 22.14096 119.15608 40021 ft 437 kts 274°
2026-04-20 03:18 22.14878 119.09092 40018 ft 437 kts 274°
2026-04-20 03:18 22.15687 119.02582 40018 ft 437 kts 275°
2026-04-20 03:19 22.16498 118.96103 40020 ft 437 kts 274°
2026-04-20 03:19 22.17282 118.89593 40019 ft 437 kts 274°
2026-04-20 03:20 22.18055 118.83102 40021 ft 437 kts 274°
2026-04-20 03:20 22.18827 118.76621 40019 ft 437 kts 274°
2026-04-20 03:21 22.19603 118.70098 40018 ft 436 kts 274°
2026-04-20 03:21 22.20350 118.63795 40014 ft 437 kts 275°
2026-04-20 03:21 22.20736 118.60526 39871 ft 435 kts 274°
2026-04-20 03:22 22.21114 118.57348 39937 ft 423 kts 274°
2026-04-20 03:22 22.21856 118.51026 40019 ft 431 kts 274°
2026-04-20 03:23 22.22612 118.44511 40028 ft 440 kts 274°
2026-04-20 03:23 22.23373 118.37953 40024 ft 443 kts 274°
2026-04-20 03:24 22.24140 118.31328 40022 ft 443 kts 274°
2026-04-20 03:24 22.24897 118.24770 40021 ft 441 kts 274°
2026-04-20 03:25 22.25652 118.18196 40015 ft 438 kts 274°
2026-04-20 03:25 22.26391 118.11705 40013 ft 435 kts 274°
2026-04-20 03:26 22.27075 118.05257 40014 ft 433 kts 273°
2026-04-20 03:26 22.27767 117.98768 40023 ft 433 kts 274°
2026-04-20 03:27 22.28504 117.92306 40016 ft 434 kts 274°
2026-04-20 03:27 22.29250 117.85859 40015 ft 434 kts 274°
2026-04-20 03:28 22.29989 117.79394 40022 ft 435 kts 274°
2026-04-20 03:28 22.31089 117.69680 40021 ft 436 kts 274°
2026-04-20 03:29 22.31826 117.63151 40011 ft 436 kts 274°
2026-04-20 03:29 22.32553 117.56680 40020 ft 436 kts 274°
2026-04-20 03:30 22.33277 117.50170 40011 ft 436 kts 273°
2026-04-20 03:30 22.33420 117.43644 40023 ft 433 kts 266°
2026-04-20 03:31 22.33193 117.37170 40011 ft 432 kts 266°
2026-04-20 03:31 22.32988 117.30692 40011 ft 432 kts 266°
2026-04-20 03:32 22.32840 117.24172 40011 ft 432 kts 266°
2026-04-20 03:32 22.32717 117.17709 40015 ft 432 kts 266°
2026-04-20 03:33 22.32596 117.11203 40019 ft 432 kts 267°
2026-04-20 03:33 22.32472 117.04737 40008 ft 432 kts 267°
2026-04-20 03:34 22.32343 116.98239 40013 ft 432 kts 267°
2026-04-20 03:34 22.32212 116.91745 40013 ft 432 kts 267°
2026-04-20 03:35 22.32078 116.85294 40019 ft 432 kts 267°
2026-04-20 03:35 22.31941 116.78794 39991 ft 432 kts 267°
2026-04-20 03:36 22.31802 116.72319 40014 ft 433 kts 267°
2026-04-20 03:36 22.31660 116.65799 40016 ft 434 kts 267°
2026-04-20 03:37 22.31514 116.59261 40012 ft 435 kts 266°
2026-04-20 03:37 22.31367 116.52756 40010 ft 435 kts 267°
2026-04-20 03:38 22.31216 116.46199 40012 ft 435 kts 267°
2026-04-20 03:38 22.31063 116.39670 40003 ft 435 kts 267°
2026-04-20 03:39 22.30908 116.33164 40007 ft 435 kts 267°
2026-04-20 03:39 22.30749 116.26628 40005 ft 434 kts 267°
2026-04-20 03:40 22.30589 116.20131 40004 ft 434 kts 267°
2026-04-20 03:40 22.30425 116.13598 40011 ft 434 kts 267°
2026-04-20 03:41 22.30261 116.07121 40008 ft 434 kts 267°
2026-04-20 03:41 22.30092 116.00595 40000 ft 434 kts 267°
2026-04-20 03:42 22.29921 115.94072 40006 ft 434 kts 267°
2026-04-20 03:42 22.29747 115.87539 40010 ft 435 kts 267°
2026-04-20 03:43 22.29568 115.81041 40003 ft 434 kts 267°
2026-04-20 03:43 22.29458 115.77790 39680 ft 431 kts 266°
2026-04-20 03:43 22.29337 115.74561 39172 ft 427 kts 266°
2026-04-20 03:44 22.29214 115.71362 38677 ft 426 kts 266°
2026-04-20 03:44 22.29084 115.68180 38301 ft 430 kts 266°
2026-04-20 03:44 22.28819 115.61755 38231 ft 424 kts 266°
2026-04-20 03:45 22.28571 115.55424 38098 ft 421 kts 266°
2026-04-20 03:45 22.28380 115.50211 37328 ft 409 kts 266°
2026-04-20 03:46 22.28273 115.47152 36240 ft 406 kts 267°
2026-04-20 03:46 22.28165 115.44132 35170 ft 404 kts 267°
2026-04-20 03:46 22.28054 115.41115 34191 ft 401 kts 267°
2026-04-20 03:46 22.27940 115.38108 33180 ft 397 kts 267°
2026-04-20 03:47 22.27826 115.35145 32187 ft 393 kts 267°
2026-04-20 03:47 22.27711 115.32191 31143 ft 391 kts 267°
2026-04-20 03:47 22.27597 115.29300 30188 ft 389 kts 267°
2026-04-20 03:47 22.27482 115.26384 29157 ft 385 kts 267°
2026-04-20 03:48 22.27368 115.23516 28269 ft 379 kts 266°
2026-04-20 03:48 22.27256 115.20689 27412 ft 372 kts 266°
2026-04-20 03:48 22.27145 115.17919 26584 ft 367 kts 266°
2026-04-20 03:48 22.27035 115.15181 25751 ft 363 kts 266°
2026-04-20 03:49 22.26805 115.12524 25055 ft 359 kts 259°
2026-04-20 03:49 22.26328 115.09848 24832 ft 361 kts 257°
2026-04-20 03:49 22.25802 115.07212 24666 ft 358 kts 257°
2026-04-20 03:49 22.25281 115.04564 24518 ft 357 kts 257°
2026-04-20 03:50 22.24785 115.01943 24505 ft 356 kts 257°
2026-04-20 03:50 22.24309 114.99347 24501 ft 357 kts 258°
2026-04-20 03:50 22.23836 114.96722 24209 ft 354 kts 258°
2026-04-20 03:50 22.23370 114.94132 23547 ft 349 kts 257°
2026-04-20 03:51 22.23017 114.91553 22619 ft 347 kts 264°
2026-04-20 03:51 22.22939 114.88950 21714 ft 346 kts 268°
2026-04-20 03:51 22.22954 114.86383 20892 ft 343 kts 269°
2026-04-20 03:51 22.22977 114.83818 20102 ft 339 kts 269°
2026-04-20 03:52 22.22987 114.81274 19334 ft 336 kts 269°
2026-04-20 03:52 22.22981 114.78753 18583 ft 334 kts 268°
2026-04-20 03:52 22.22964 114.76280 17767 ft 330 kts 268°
2026-04-20 03:52 22.22941 114.73810 16926 ft 326 kts 268°
2026-04-20 03:53 22.22914 114.71374 16140 ft 320 kts 268°
2026-04-20 03:53 22.22887 114.69023 15386 ft 316 kts 269°
2026-04-20 03:53 22.22858 114.66672 14660 ft 311 kts 269°
2026-04-20 03:53 22.22831 114.64393 14335 ft 293 kts 269°
2026-04-20 03:54 22.22805 114.62271 14131 ft 273 kts 269°
2026-04-20 03:54 22.22780 114.60303 14014 ft 251 kts 269°
2026-04-20 03:54 22.22757 114.58485 14003 ft 234 kts 269°
2026-04-20 03:54 22.22735 114.56780 13991 ft 219 kts 269°
2026-04-20 03:55 22.22714 114.55216 13968 ft 203 kts 269°
2026-04-20 03:55 22.22694 114.53655 13401 ft 215 kts 269°
2026-04-20 03:55 22.22670 114.51919 12367 ft 246 kts 268°
2026-04-20 03:55 22.22644 114.49980 11393 ft 274 kts 268°
2026-04-20 03:56 22.22615 114.47869 10822 ft 284 kts 268°
2026-04-20 03:56 22.22586 114.45719 10338 ft 288 kts 268°
2026-04-20 03:56 22.22557 114.43547 9946 ft 289 kts 268°
2026-04-20 03:56 22.22528 114.41405 9566 ft 283 kts 268°
2026-04-20 03:57 22.22499 114.39294 8852 ft 280 kts 268°
2026-04-20 03:57 22.22470 114.37185 8074 ft 280 kts 268°
2026-04-20 03:57 22.22440 114.35079 7337 ft 279 kts 267°
2026-04-20 03:57 22.22411 114.33009 6671 ft 277 kts 267°
2026-04-20 03:58 22.22381 114.30904 6367 ft 284 kts 267°
2026-04-20 03:58 22.22350 114.28790 6176 ft 273 kts 267°
2026-04-20 03:58 22.22321 114.26803 6030 ft 264 kts 266°
2026-04-20 03:58 22.22294 114.24846 6000 ft 253 kts 266°
2026-04-20 03:59 22.22267 114.22987 5977 ft 241 kts 266°
2026-04-20 03:59 22.22240 114.21191 6001 ft 241 kts 266°
2026-04-20 03:59 22.22212 114.19423 5993 ft 235 kts 267°
2026-04-20 03:59 22.22185 114.17682 5985 ft 229 kts 267°
2026-04-20 04:00 22.22158 114.15961 5992 ft 230 kts 267°
2026-04-20 04:00 22.22131 114.14218 5998 ft 232 kts 267°
2026-04-20 04:00 22.22103 114.12472 5995 ft 233 kts 267°
2026-04-20 04:00 22.22077 114.10710 5993 ft 235 kts 266°
2026-04-20 04:01 22.22050 114.08973 5991 ft 235 kts 267°
2026-04-20 04:01 22.22022 114.07208 5996 ft 234 kts 266°
2026-04-20 04:01 22.21994 114.05451 5995 ft 234 kts 266°
2026-04-20 04:01 22.21964 114.03691 5996 ft 233 kts 266°
2026-04-20 04:02 22.21926 114.01957 5997 ft 233 kts 266°
2026-04-20 04:02 22.21868 114.00217 5893 ft 230 kts 266°
2026-04-20 04:02 22.21810 113.98482 5659 ft 231 kts 264°
2026-04-20 04:02 22.21751 113.96741 5417 ft 232 kts 266°
2026-04-20 04:03 22.21693 113.95002 5245 ft 229 kts 265°
2026-04-20 04:03 22.21639 113.93336 5190 ft 218 kts 266°
2026-04-20 04:03 22.21588 113.91749 5007 ft 205 kts 265°
2026-04-20 04:03 22.21545 113.90256 4747 ft 198 kts 270°
2026-04-20 04:04 22.21971 113.88873 4552 ft 198 kts 307°
2026-04-20 04:04 22.23109 113.88022 4531 ft 199 kts 343°
2026-04-20 04:04 22.24419 113.87956 4481 ft 184 kts 13°
2026-04-20 04:04 22.25569 113.88508 4500 ft 179 kts 32°
2026-04-20 04:05 22.26622 113.89264 4480 ft 181 kts 40°
2026-04-20 04:05 22.27577 113.90095 4365 ft 176 kts 41°
2026-04-20 04:05 22.28552 113.90951 4269 ft 184 kts 41°
2026-04-20 04:05 22.29521 113.91821 4299 ft 180 kts 42°
2026-04-20 04:06 22.30451 113.92651 4214 ft 168 kts 41°
2026-04-20 04:06 22.31269 113.93531 4192 ft 168 kts 62°
2026-04-20 04:06 22.31555 113.94695 4206 ft 158 kts 86°
2026-04-20 04:06 22.31728 113.95867 4196 ft 157 kts 85°
2026-04-20 04:07 22.31859 113.97049 4022 ft 157 kts 89°
2026-04-20 04:07 22.31956 113.98222 3827 ft 157 kts 88°
2026-04-20 04:07 22.32040 113.99388 3617 ft 154 kts 88°
2026-04-20 04:07 22.32116 114.00524 3420 ft 152 kts 88°
2026-04-20 04:08 22.32189 114.01654 3277 ft 152 kts 90°
2026-04-20 04:08 22.32267 114.02821 2950 ft 147 kts 88°
2026-04-20 04:08 22.32338 114.03976 2819 ft 162 kts 89°
2026-04-20 04:08 22.32416 114.05154 2613 ft 152 kts 89°
2026-04-20 04:09 22.32489 114.06275 2387 ft 153 kts 88°
2026-04-20 04:09 22.32562 114.07403 2220 ft 149 kts 90°
2026-04-20 04:09 22.32635 114.08529 1991 ft 148 kts 89°
2026-04-20 04:09 22.32705 114.09625 1827 ft 148 kts 88°
2026-04-20 04:10 22.32778 114.10758 1621 ft 149 kts 89°
2026-04-20 04:10 22.32850 114.11829 1407 ft 142 kts 88°
2026-04-20 04:10 22.32920 114.12940 1234 ft 150 kts 89°
2026-04-20 04:10 22.32993 114.14038 1033 ft 143 kts 89°
2026-04-20 04:11 22.33061 114.15109 860 ft 139 kts 86°
2026-04-20 04:11 22.33126 114.16116 688 ft 129 kts 86°
2026-04-20 04:11 22.33190 114.17077 522 ft 127 kts 86°
2026-04-20 04:11 22.33170 114.17999 389 ft 120 kts 98°
2026-04-20 04:12 22.32873 114.18813 239 ft 116 kts 126°
2026-04-20 04:12 22.32349 114.19454 88 ft 109 kts 134°
2026-04-20 04:12 22.31838 114.20023 37 ft 101 kts 133°
2026-04-20 04:12 22.31519 114.20381 37 ft 22 kts 134°
2026-04-20 04:13 22.31379 114.20540 36 ft 30 kts 133°
2026-04-20 04:13 22.31281 114.20663 38 ft 13 kts 108°
2026-04-20 04:13 22.31327 114.20730 37 ft 13 kts 357°
2026-04-20 04:13 22.31399 114.20675 38 ft 13 kts 313°
2026-04-20 04:14 22.31470 114.20594 38 ft 18 kts 313°
2026-04-20 04:14 22.31567 114.20483 36 ft 23 kts 314°
2026-04-20 04:14 22.31687 114.20350 38 ft 27 kts 314°
2026-04-20 04:14 22.31813 114.20207 38 ft 27 kts 313°
2026-04-20 04:15 22.31927 114.20082 36 ft 23 kts 314°
2026-04-20 04:15 22.32038 114.19959 38 ft 23 kts 314°
2026-04-20 04:15 22.32148 114.19836 37 ft 23 kts 314°
2026-04-20 04:15 22.32259 114.19712 36 ft 23 kts 314°
2026-04-20 04:16 22.32373 114.19594 38 ft 23 kts 317°
2026-04-20 04:16 22.32489 114.19479 37 ft 23 kts 317°
2026-04-20 04:16 22.32563 114.19412 38 ft 11 kts 339°
2026-04-20 04:16 22.32612 114.19425 38 ft 12 kts 34°
2026-04-20 04:17 22.32701 114.19488 38 ft 8 kts 347°
2026-04-20 04:17 22.32730 114.19472 38 ft 2 kts 323°
2026-04-20 04:17 22.32743 114.19459 38 ft 0 kts 314°
2026-04-20 04:17 22.32752 114.19450 38 ft 0 kts 314°
2026-04-20 04:18 22.32753 114.19449 38 ft 0 kts 314°